Onweer radar Meer informatie blitzortung!


Regen radar Meer informatie rain snow radar


Bezoek onze andere website:

Template documentation
and downloads

And another site



15 daagse weersverwachting 0.000N 0.000E

  • Overzicht
  • Per uur
  • 15 dagen
  • Extra
  • Vergelijk
  • Kaarten
  • Dagkaart
  • Meer »
  • Info
  • Statistieken
  • Directe link
    Temp 6h Neerslag Wind  
 02:09     18:59    Daglengte: 16:50 Morgen
00:00
15°
 
2
06:00
18°
1.4 mm
3
12:00
19°
6.8 mm
5
warningclass
18:00
17°
2.2 mm
4
 02:12     18:57    Daglengte: 16:45 Maandag 02 Aug
00:00
15°
 
2
06:00
17°
 
2
12:00
19°
 
3
18:00
17°
1.5 mm
2
 02:14     18:54    Daglengte: 16:40 Dinsdag 03 Aug
00:00
14°
1.5 mm
3
06:00
13°
 
5
12:00
17°
 
5
18:00
14°
 
3
Locatie info
Region:
Latitude: 60.4202°N
Longitude: 23.2372°E
0 masl
Temp/Neerslag /Baro Onweer/Dauwpunt
    Temp Baro 1h Neerslag Dauwpunt Wind UV Bewolking  
 02:07     19:02    Daglengte: 16:55 Vandaag
22:00
16°
999.3 hPa
11%
15.5°
2
Windvlaag: 4.3 m/s
43%
23:00
15°
999.1 hPa
17%
15.2°
2
Windvlaag: 4.5 m/s
67%
 02:09     18:59    Daglengte: 16:50 Morgen
00:00
15°
998.6 hPa
15%
15.2°
2
Windvlaag: 4.4 m/s
62%
01:00
15°
998.1 hPa
62%
15.3°
2
Windvlaag: 4.2 m/s
78%
02:00
16°
997.3 hPa
60%
15.5°
3
Windvlaag: 5.4 m/s
79%
03:00
16°
997.0 hPa
14%
15.6°
3
Windvlaag: 6.3 m/s
68%
04:00
16°
996.7 hPa
74%
15.6°
3
Windvlaag: 6.7 m/s
74%
05:00
17°
996.4 hPa 0.9 mm
82%
16.1°
3
Windvlaag: 6.6 m/s
65%
06:00
18°
996.1 hPa 0.5 mm
82%
16.1°
3
Windvlaag: 6.9 m/s
53%
07:00
18°
996.1 hPa 1.3 mm
82%
16.2°
3
Windvlaag: 6.8 m/s
73%
08:00
18°
995.9 hPa 0.7 mm
82%
16.5°
4
Windvlaag: 6.9 m/s
48%
09:00
18°
995.9 hPa 1.0 mm
82%
16.6°
4
Windvlaag: 7.4 m/s
73%
10:00
19°
995.8 hPa 1.2 mm
82%
16.3°
4
Windvlaag: 7.5 m/s
73%
11:00
19°
996.0 hPa 1.5 mm
82%
15.8°
5
Windvlaag: 7.6 m/s
73% warningclass
12:00
19°
996.4 hPa 1.1 mm
82%
16.0°
5
Windvlaag: 6.4 m/s
79% warningclass
13:00
19°
996.9 hPa 0.9 mm
82%
15.4°
5
Windvlaag: 6 m/s
26% warningclass
14:00
19°
997.4 hPa 1.3 mm
82%
14.0°
5
Windvlaag: 5.4 m/s
18% warningclass
15:00
19°
997.8 hPa
82%
12.7°
5
Windvlaag: 5.4 m/s
33%
16:00
19°
998.4 hPa
82%
12.4°
5
Windvlaag: 7.2 m/s
30%
17:00
18°
999.0 hPa
71%
12.4°
5
Windvlaag: 7.6 m/s
5%
18:00
17°
999.3 hPa
18%
12.9°
4
Windvlaag: 5.9 m/s
24%
19:00
17°
999.6 hPa
14%
13.9°
3
Windvlaag: 6.1 m/s
8%
20:00
16°
999.9 hPa
14%
14.6°
2
Windvlaag: 5.1 m/s
30%
21:00
16°
1000.0 hPa
14%
14.7°
2
Windvlaag: 5.2 m/s
27%
22:00
15°
1000.2 hPa
14%
14.5°
2
Windvlaag: 5.4 m/s
34%
23:00
15°
1000.1 hPa
14%
14.5°
2
Windvlaag: 5.4 m/s
40%
 02:12     18:57    Daglengte: 16:45 Maandag 02 Aug
00:00
15°
1000.0 hPa
14%
14.2°
2
Windvlaag: 5 m/s
18%
01:00
14°
999.9 hPa
14%
13.6°
2
Windvlaag: 4.6 m/s
37%
02:00
14°
1000.0 hPa
15%
13.7°
1
Windvlaag: 4.1 m/s
58%
03:00
14°
999.9 hPa
14%
13.8°
1
Windvlaag: 3.6 m/s
46%
04:00
15°
999.9 hPa
14%
14.0°
1
Windvlaag: 2.8 m/s
28%
05:00
16°
999.8 hPa
14%
14.8°
1
Windvlaag: 3.6 m/s
54%
06:00
17°
999.6 hPa
14%
15.1°
2
Windvlaag: 4.9 m/s
54%
07:00
19°
999.4 hPa
14%
14.3°
2
Windvlaag: 4.4 m/s
70%
08:00
19°
999.5 hPa
14%
15.4°
2
Windvlaag: 4.4 m/s
68%
09:00
19°
999.2 hPa
14%
15.8°
2
Windvlaag: 4 m/s
63%
10:00
19°
999.0 hPa
17%
16.8°
2
Windvlaag: 3.9 m/s
64%
11:00
19°
998.8 hPa
29%
17.2°
3
Windvlaag: 4.1 m/s
42%
12:00
19°
998.5 hPa
67%
17.3°
3
Windvlaag: 3.8 m/s
20%
13:00
19°
998.4 hPa
74%
17.1°
3
Windvlaag: 3.7 m/s
25%
14:00
19°
998.1 hPa
71%
16.9°
3
Windvlaag: 3.4 m/s
19%
15:00
20°
998.0 hPa
92%
11.6°
2
Windvlaag: 3.5 m/s
60%
16:00
19°
997.9 hPa
95%
10.7°
3
Windvlaag: 3.6 m/s
79%
17:00
18°
997.6 hPa 1.5 mm
100%
10.6°
2
Windvlaag: 2.3 m/s
55%
18:00
17°
997.5 hPa
84%
10.5°
2
Windvlaag: -1.2 m/s
62%
19:00
16°
997.5 hPa 1.5 mm
21%
9.7°
2
Windvlaag: -0.8 m/s
91%
20:00
15°
997.5 hPa
23%
10.2°
2
Windvlaag: -0.8 m/s
88%
21:00
14°
997.4 hPa
27%
9.4°
2
Windvlaag: -1.2 m/s
66%
22:00
14°
997.5 hPa
37%
8.7°
2
Windvlaag: -1.1 m/s
78%
23:00
14°
997.7 hPa
93%
9.2°
2
Windvlaag: -0.9 m/s
86%
 02:14     18:54    Daglengte: 16:40 Dinsdag 03 Aug
00:00
14°
997.9 hPa
86%
10.1°
3
Windvlaag: -1.3 m/s
80%
01:00
13°
998.2 hPa
21%
10.8°
3
Windvlaag: -2.4 m/s
85%
02:00
13°
998.6 hPa
25%
11.3°
4
Windvlaag: -2.8 m/s
95%
03:00
13°
999.0 hPa
30%
12.0°
4
Windvlaag: -3.4 m/s
95%
04:00
12°
999.3 hPa
66%
12.0°
4
Windvlaag: -3.9 m/s
89%
05:00
12°
999.9 hPa
23%
11.5°
5
Windvlaag: -3.6 m/s
94%
06:00
13°
1000.7 hPa
21%
10.2°
5
Windvlaag: -4.1 m/s
84%
07:00
13°
1001.5 hPa
22%
11.0°
5
Windvlaag: -4 m/s
80%
08:00
14°
1002.4 hPa
23%
11.3°
5
Windvlaag: -4.2 m/s
86%
09:00
15°
1003.1 hPa
21%
11.7°
5
Windvlaag: -4.7 m/s
85%
10:00
15°
1003.5 hPa
21%
11.8°
5
Windvlaag: -4.9 m/s
76%
11:00
17°
1004.1 hPa
21%
14.0°
5
Windvlaag: -3.7 m/s
23%
12:00
17°
1004.5 hPa
21%
15.0°
5
Windvlaag: -3.7 m/s
27%
13:00
17°
1004.3 hPa
21%
14.4°
5
Windvlaag: 14.1 m/s
20%
14:00
17°
1005.0 hPa
24%
12.4°
5
Windvlaag: 11.6 m/s
75%
15:00
17°
1005.6 hPa
23%
11.6°
5
Windvlaag: 9.9 m/s
20%
16:00
16°
1006.2 hPa
22%
11.2°
5
Windvlaag: 9.7 m/s
20%
17:00
16°
1006.8 hPa
21%
9.4°
4
Windvlaag: 11 m/s
18%
18:00
14°
1007.6 hPa
21%
9.1°
3
Windvlaag: 10.3 m/s
7%
19:00
11°
1005.0 hPa 4.5 mm
100%
7.0°
3
Windvlaag: 10.3 m/s
3%
20:00
12°
1005.6 hPa 4.5 mm
100%
7.5°
4
Windvlaag: 12 m/s
23%
21:00
12°
1006.0 hPa 4.5 mm
100%
7.9°
4
Windvlaag: 12.4 m/s
46%
Temp/Neerslag /Baro Onweer/Dauwpunt
    Temp Baro Neerslag Dauwpunt Wind Bewolking  
 02:09     18:59    Daglengte: 16:50 Morgen
00:00
15°
998.6 hPa   15.2°
2
62%
03:00
16°
997.0 hPa   15.6°
3
68%
06:00
18°
996.1 hPa 1.4 mm 16.1°
3
53%
09:00
18°
995.9 hPa 2.9 mm 16.6°
4
73%
12:00
19°
996.4 hPa 3.8 mm 16.0°
5
79% warningclass
15:00
19°
997.8 hPa 2.2 mm 12.7°
5
33%
18:00
17°
999.3 hPa   12.9°
4
24%
21:00
16°
1000.0 hPa   14.7°
2
27%
 02:12     18:57    Daglengte: 16:45 Maandag 02 Aug
00:00
15°
1000.0 hPa   14.2°
2
18%
03:00
14°
999.9 hPa   13.8°
1
46%
06:00
17°
999.6 hPa   15.1°
2
54%
09:00
19°
999.2 hPa   15.8°
2
63%
12:00
19°
998.5 hPa   17.3°
3
20%
15:00
20°
998.0 hPa   11.6°
2
60%
18:00
17°
997.5 hPa 1.5 mm 10.5°
2
62%
21:00
14°
997.4 hPa 1.5 mm 9.4°
2
66%
 02:14     18:54    Daglengte: 16:40 Dinsdag 03 Aug
00:00
14°
997.9 hPa   10.1°
3
80%
03:00
13°
999.0 hPa   12.0°
4
95%
06:00
13°
1000.7 hPa   10.2°
5
84%
09:00
15°
1003.1 hPa   11.7°
5
85%
12:00
17°
1004.5 hPa   15.0°
5
27%
15:00
17°
1005.6 hPa   11.6°
5
20%
18:00
14°
1007.6 hPa   9.1°
3
7%
21:00
12°
1006.0 hPa 13.6 mm 7.9°
4
46%
 02:16     18:51    Daglengte: 16:35 Woensdag 04 Aug
00:00
10°
1007.7 hPa 13.7 mm 7.5°
3
30%
03:00
1012.7 hPa 8.9 mm 7.9°
0
0%
06:00
16°
1013.2 hPa 8.9 mm 8.2°
1
0%
09:00
20°
1013.0 hPa 8.9 mm 4.7°
1
0%
12:00
22°
1013.0 hPa 8.9 mm 3.9°
1
0%
15:00
21°
1012.8 hPa 9.0 mm 3.5°
1
0%
18:00
16°
1013.8 hPa 9.2 mm 8.3°
1
0%
21:00
12°
1015.3 hPa 9.2 mm 7.0°
2
0%
 02:19     18:49    Daglengte: 16:30 Donderdag 05 Aug
00:00
10°
1015.6 hPa 9.2 mm 5.5°
2
0%
03:00
Voelt als: 8.5°
1016.2 hPa 9.2 mm 4.6°
2
0%
06:00
16°
1016.5 hPa 9.2 mm 4.5°
2
0%
09:00
20°
1016.2 hPa 9.2 mm 3.5°
2
0%
12:00
23°
1015.2 hPa 9.2 mm 3.2°
2
0%
15:00
22°
1014.6 hPa 9.2 mm 2.9°
1
0%
18:00
16°
1014.8 hPa 9.2 mm 9.4°
1
0%
21:00
13°
1014.7 hPa 9.2 mm 7.7°
1
1%
 02:21     18:46    Daglengte: 16:25 Vrijdag 06 Aug
00:00
12°
1014.3 hPa 9.2 mm 10.3°
2
1%
03:00
12°
1013.6 hPa 9.2 mm 10.3°
3
0%
06:00
19°
1011.9 hPa 9.2 mm 12.1°
4
0%
09:00
23°
1011.0 hPa 9.2 mm 11.3°
5
0%
12:00
24°
1009.0 hPa 9.2 mm 9.4°
6
1%
15:00
21°
1008.2 hPa 9.2 mm 11.2°
4
1%
18:00
18°
1007.7 hPa 9.3 mm 13.3°
3
1%
21:00
16°
1007.2 hPa 9.3 mm 14.4°
4
1%
 02:24     18:43    Daglengte: 16:19 Zaterdag 07 Aug
00:00
16°
1006.3 hPa 10.3 mm 14.2°
4
1%
03:00
15°
1006.1 hPa 11.3 mm 14.3°
4
1%
06:00
15°
1006.1 hPa 11.9 mm 14.6°
4
1%
09:00
18°
1006.6 hPa 12.0 mm 15.4°
3
1%
12:00
19°
1007.5 hPa 12.2 mm 14.3°
3
1%
15:00
19°
1008.2 hPa 12.2 mm 14.7°
3
1%
18:00
17°
1008.8 hPa 12.2 mm 14.8°
2
1%
21:00
15°
1009.5 hPa   14.4°
2
1%
 02:26     18:41    Daglengte: 16:15 Zondag 08 Aug
00:00
14°
1009.9 hPa 24.4 mm 14.1°
2
1%
06:00
19°
1010.4 hPa 25.1 mm 17.3°
2
1%
12:00
20°
1011.3 hPa 27.6 mm 15.5°
3
1%
18:00
18°
1012.4 hPa 28.4 mm 15.8°
3
1%
 02:29     18:38    Daglengte: 16:09 Maandag 09 Aug
00:00
16°
1014.2 hPa 28.4 mm 15.3°
2
0%
06:00
20°
1015.5 hPa 28.4 mm 16.4°
4
1%
12:00
25°
1016.2 hPa 28.4 mm 13.3°
5
1%
18:00
19°
1017.4 hPa 29.5 mm 16.7°
2
1%
 02:31     18:35    Daglengte: 16:04 Dinsdag 10 Aug
00:00
16°
1016.3 hPa 30.1 mm 15.0°
2
1%
06:00
19°
1015.4 hPa 30.1 mm 15.1°
3
1%
12:00
26°
1014.9 hPa 30.2 mm 13.9°
3
1%
18:00
18°
1013.2 hPa 0.7 mm 13.9°
0
71%
 02:33     18:32    Daglengte: 15:59 Woensdag 11 Aug
00:00
15°
1013.8 hPa 0.3 mm 13.1°
0
56%
06:00
17°
1013.8 hPa 0.7 mm 13.5°
1
59%
12:00
21°
1013.7 hPa 0.8 mm 13.7°
1
62%
18:00
18°
1013.7 hPa 1.1 mm 13.7°
1
59%
 02:36     18:29    Daglengte: 15:53 Donderdag 12 Aug
00:00
15°
1013.7 hPa 0.3 mm 12.6°
0
54%
06:00
17°
1013.6 hPa 0.5 mm 13.6°
0
62%
12:00
21°
1013.8 hPa 0.3 mm 13.3°
1
62%
18:00
17°
1014.1 hPa 0.8 mm 13.1°
0
63%
 02:38     18:27    Daglengte: 15:49 Vrijdag 13 Aug
00:00
14°
1014.5 hPa 0.3 mm 12.5°
0
53%
06:00
17°
1014.9 hPa 0.2 mm 13.3°
0
60%
12:00
21°
1015.0 hPa 1.0 mm 13.3°
1
64%
18:00
17°
1014.8 hPa 0.8 mm 13.4°
1
56%
 02:41     18:24    Daglengte: 15:43 Zaterdag 14 Aug
00:00
14°
1014.8 hPa 0.1 mm 12.4°
0
58%
06:00
17°
1014.3 hPa 0.5 mm 12.9°
1
54%
12:00
21°
1013.7 hPa 0.7 mm 12.3°
1
59%
18:00
17°
1013.1 hPa 0.6 mm 12.6°
1
57%
 02:43     18:21    Daglengte: 15:38 Zondag 15 Aug
00:00
14°
1012.7 hPa 0.1 mm 11.5°
0
55%
06:00
16°
1012.1 hPa 0.1 mm 12.0°
0
57%
12:00
20°
1011.7 hPa 0.3 mm 11.7°
1
58%
18:00
16°
1011.2 hPa 0.5 mm 12.0°
0
60%
  CAPE Lifted Index Hail Supercell Tornado SRH 3km CL BTM PRES CL TOP PRES Swiss DWD icon SMHI TS
 02:07     19:02    Daglengte: 16:55 Vandaag
22:00 622 J/kg -2.5 K 0 % 0 % 0 % 0 m²/s² 0 0 -1.75 3
23:00 541 J/kg -2.3 K 0 % 0 % 0 % 0 m²/s² 0 0 -1.7 3
 02:09     18:59    Daglengte: 16:50 Morgen
00:00 518 J/kg -2.2 K 0 % 0 % 0 % 0 m²/s² 0 0 -1.54 3
01:00 644 J/kg -3.3 K 0 % 0 % 0 % 0 m²/s² 0 0 -2.79 3
02:00 756 J/kg -3.2 K 0 % 0 % 0 % 0 m²/s² 0 0 -1.76 3
03:00 44 J/kg 0.5 K 0 % 0 % 0 % 0 m²/s² 0 0 1.34 3
04:00 0 J/kg -1.1 K 0 % 0 % 0 % 0 m²/s² 0 0 0.88 3
05:00 907 J/kg -3.2 K 0 % 0 % 0 % 0 m²/s² 0 0 -1.49 80
06:00 1010 J/kg -3.3 K 0 % 0 % 0 % 0 m²/s² 0 0 -1.92 3
07:00 958 J/kg -3.3 K 0 % 0 % 0 % 0 m²/s² 0 0 -1.8 3
08:00 982 J/kg -3.4 K 0 % 0 % 0 % 0 m²/s² 0 0 -1.96 80
09:00 1003 J/kg -3.5 K 0 % 0 % 0 % 0 m²/s² 0 0 -2 80
10:00 867 J/kg -3.0 K 0 % 0 % 0 % 0 m²/s² 0 0 -1.44 80
11:00 788 J/kg -3.0 K 0 % 0 % 0 % 0 m²/s² 0 0 -0.96 95
12:00 1044 J/kg -3.9 K 0 % 0 % 0 % 0 m²/s² 0 0 -2.46 80
13:00 1079 J/kg -3.5 K 0 % 0 % 0 % 0 m²/s² 0 0 -2.42 3
14:00 868 J/kg -2.7 K 0 % 0 % 0 % 0 m²/s² 0 0 -1.53 95
15:00 630 J/kg -2.2 K 0 % 0 % 0 % 0 m²/s² 0 0 -0.4 80
16:00 408 J/kg -1.4 K 0 % 0 % 0 % 0 m²/s² 0 0 0.64 3
17:00 0 J/kg 0.5 K 0 % 0 % 0 % 0 m²/s² 0 0 3.35 2
18:00 0 J/kg 0.9 K 0 % 0 % 0 % 0 m²/s² 0 0 3.93 2
19:00 0 J/kg 1.0 K 0 % 0 % 0 % 0 m²/s² 0 0 5.47 2
20:00 2 J/kg 0.7 K 0 % 0 % 0 % 0 m²/s² 0 0 6.37 2
21:00 14 J/kg 0.2 K 0 % 0 % 0 % 0 m²/s² 0 0 4.67 2
22:00 32 J/kg 0.2 K 0 % 0 % 0 % 0 m²/s² 0 0 4.34 3
23:00 35 J/kg 0.6 K 0 % 0 % 0 % 0 m²/s² 0 0 5.07 2
 02:12     18:57    Daglengte: 16:45 Maandag 02 Aug
00:00 42 J/kg 1.4 K 0 % 0 % 0 % 0 m²/s² 0 0 6.5 2
01:00 28 J/kg 2.3 K 0 % 0 % 0 % 0 m²/s² 0 0 7.67 3
02:00 37 J/kg 2.9 K 0 % 0 % 0 % 0 m²/s² 0 0 8.42 3
03:00 61 J/kg 3.1 K 0 % 0 % 0 % 0 m²/s² 0 0 8.32 3
04:00 72 J/kg 2.7 K 0 % 0 % 0 % 0 m²/s² 0 0 7.92 3
05:00 63 J/kg 1.8 K 0 % 0 % 0 % 0 m²/s² 0 0 7.29 3
06:00 81 J/kg 2.0 K 0 % 0 % 0 % 0 m²/s² 0 0 7.49 3
07:00 87 J/kg 2.2 K 0 % 0 % 0 % 0 m²/s² 0 0 7.69 3
08:00 107 J/kg 2.2 K 0 % 0 % 0 % 0 m²/s² 0 0 7.27 3
09:00 96 J/kg 2.1 K 0 % 0 % 0 % 0 m²/s² 0 0 6.69 3
10:00 92 J/kg 2.1 K 0 % 0 % 0 % 0 m²/s² 0 0 6.24 3
11:00 80 J/kg 1.7 K 0 % 0 % 0 % 0 m²/s² 0 0 5.84 3
12:00 120 J/kg 1.4 K 0 % 0 % 0 % 0 m²/s² 0 0 4.94 3
13:00 160 J/kg 1.4 K 0 % 0 % 0 % 0 m²/s² 0 0 3.95 3
14:00 211 J/kg 1.0 K 0 % 0 % 0 % 0 m²/s² 0 0 2.74 3
15:00 162 J/kg 1.1 K 0 % 0 % 0 % 0 m²/s² 0 0 2.96 3
16:00 128 J/kg 1.2 K 0 % 0 % 0 % 0 m²/s² 0 0 2.82 3
17:00 87 J/kg 1.6 K 0 % 0 % 0 % 0 m²/s² 0 0 2.89 80
18:00 36 J/kg 2.1 K 0 % 0 % 0 % 0 m²/s² 0 0 3.18 3
19:00 77 J/kg 1.7 K 0 % 0 % 0 % 0 m²/s² 0 0 2.45 3
20:00 93 J/kg 1.5 K 0 % 0 % 0 % 0 m²/s² 0 0 2.1 3
21:00 16 J/kg 1.1 K 0 % 0 % 0 % 0 m²/s² 0 0 1.67 45
22:00 1 J/kg 1.3 K 0 % 0 % 0 % 0 m²/s² 0 0 1.81 45
23:00 0 J/kg 1.4 K 0 % 0 % 0 % 0 m²/s² 0 0 1.91 3
 02:14     18:54    Daglengte: 16:40 Dinsdag 03 Aug
00:00 0 J/kg 2.6 K 0 % 0 % 0 % 0 m²/s² 0 0 3.47 3
01:00 0 J/kg 3.3 K 0 % 0 % 0 % 0 m²/s² 0 0 4.53 3
02:00 3 J/kg 3.1 K 0 % 0 % 0 % 0 m²/s² 0 0 4.42 3
03:00 0 J/kg 1.9 K 0 % 0 % 0 % 0 m²/s² 0 0 3.37 3
04:00 1 J/kg 1.9 K 0 % 0 % 0 % 0 m²/s² 0 0 3.91 3
05:00 2 J/kg 1.9 K 0 % 0 % 0 % 0 m²/s² 0 0 4.24 3
06:00 7 J/kg 1.4 K 0 % 0 % 0 % 0 m²/s² 0 0 3.89 3
07:00 9 J/kg 1.1 K 0 % 0 % 0 % 0 m²/s² 0 0 3.89 3
08:00 14 J/kg 1.2 K 0 % 0 % 0 % 0 m²/s² 0 0 4.59 3
09:00 10 J/kg 1.1 K 0 % 0 % 0 % 0 m²/s² 0 0 5.06 2
10:00 5 J/kg 0.7 K 0 % 0 % 0 % 0 m²/s² 0 0 4.57 3
11:00 4 J/kg 1.0 K 0 % 0 % 0 % 0 m²/s² 0 0 4.66 2
12:00 10 J/kg 1.4 K 0 % 0 % 0 % 0 m²/s² 0 0 3.68 2
13:00 2 J/kg 1.8 K 0 % 0 % 0 % 0 m²/s² 0 0 3.81 2
14:00 35 J/kg 2.5 K 0 % 0 % 0 % 0 m²/s² 0 0 3.88 3
15:00 33 J/kg 3.2 K 0 % 0 % 0 % 0 m²/s² 0 0 3.89 2
16:00 43 J/kg 3.0 K 0 % 0 % 0 % 0 m²/s² 0 0 3.81 2
17:00 35 J/kg 4.3 K 0 % 0 % 0 % 0 m²/s² 0 0 7.75 2
18:00 2 J/kg 5.5 K 0 % 0 % 0 % 0 m²/s² 0 0 9.25 1
19:00 0 J/kg 5.5 K 0 % 0 % 0 % 0 m²/s² 0 0 10.18
20:00 2 J/kg 4.2 K 0 % 0 % 0 % 0 m²/s² 0 0 9.51
21:00 0 J/kg 4.8 K 0 % 0 % 0 % 0 m²/s² 0 0 9.84
Temp Baro Wind Neerslag
  EWN Forecast EWN WRFDA DWD ICON FMI HIRLAM MET Norway GFS
 02:09     18:59    Daglengte: 16:50 Morgen
00:00 15.4° 998.6 hPa 2.2 m/s 0.0 mm 13.5° 998.0 hPa 2.5 m/s 0.0 mm 16.1° 997.5 hPa 2.6 m/s -2.0 mm 15.3° 998.8 hPa 1.8 m/s 0.0 mm 14.1° 998.3 hPa 1.9 m/s
03:00 16.1° 997.0 hPa 3.1 m/s 0.0 mm 15.4° 996.6 hPa 4.4 m/s 2.1 mm 16.3° 996.3 hPa 3.3 m/s 0.1 mm 15.6° 997.1 hPa 2.2 m/s 0.0 mm 14.7° 996.7 hPa 2.7 m/s
06:00 17.6° 996.1 hPa 3.5 m/s 1.4 mm 19.1° 995.9 hPa 6.4 m/s 4.6 mm 17.2° 995.2 hPa 4.6 m/s 0.8 mm 17.8° 996.1 hPa 2.5 m/s 0.0 mm 17.8° 996.3 hPa 3.3 m/s
09:00 18.3° 995.9 hPa 4.1 m/s 2.9 mm 19.9° 996.0 hPa 5.0 m/s 7.5 mm 18.7° 995.1 hPa 5.0 m/s 0.5 mm 18.1° 995.9 hPa 3.8 m/s 0.0 mm 20.1° 996.3 hPa 4.4 m/s
12:00 18.8° 996.4 hPa 4.7 m/s 3.8 mm 21.1° 996.4 hPa 5.6 m/s 8.7 mm 18.4° 996.2 hPa 4.8 m/s 1.8 mm 19.4° 996.2 hPa 4.7 m/s 0.0 mm 21.5° 996.4 hPa 3.8 m/s
15:00 19.1° 997.8 hPa 5.1 m/s 2.2 mm 20.2° 998.0 hPa 7.1 m/s 10.7 mm 18.8° 997.3 hPa 4.8 m/s 1.6 mm 20.9° 997.7 hPa 5.2 m/s 0.0 mm 20.0° 998.5 hPa 5.6 m/s
18:00 17.4° 999.3 hPa 3.8 m/s 0.0 mm 17.4° 998.8 hPa 4.1 m/s 11.3 mm 17.2° 998.4 hPa 3.8 m/s 0.1 mm 18.7° 999.4 hPa 3.3 m/s 0.0 mm 16.7° 999.8 hPa 4.1 m/s
21:00 15.7° 1000.0 hPa 2.0 m/s 0.0 mm 15.9° 999.5 hPa 2.9 m/s 11.3 mm 15.8° 999.4 hPa 1.8 m/s 0.0 mm 15.8° 1000.6 hPa 1.6 m/s 0.0 mm 14.6° 1000.4 hPa 3.3 m/s
 02:12     18:57    Daglengte: 16:45 Maandag 02 Aug
00:00 14.7° 1000.0 hPa 1.6 m/s 0.0 mm 14.6° 999.4 hPa 3.1 m/s 11.3 mm 14.7° 999.9 hPa 1.4 m/s 0.0 mm 15.0° 1000.8 hPa 0.5 m/s 0.0 mm 13.4° 1000.4 hPa 2.3 m/s
03:00 14.1° 999.9 hPa 1.1 m/s 0.0 mm 14.3° 999.8 hPa 3.1 m/s 11.3 mm 14.3° 999.9 hPa 0.9 m/s 0.0 mm 14.3° 1000.5 hPa 0.5 m/s 0.0 mm 13.3° 1000.6 hPa 1.9 m/s
06:00 17.5° 999.6 hPa 1.9 m/s 0.0 mm 19.3° 999.9 hPa 2.1 m/s 11.3 mm 17.3° 1000.0 hPa 1.8 m/s 0.0 mm 17.0° 999.6 hPa 1.6 m/s 0.0 mm 18.9° 1000.5 hPa 3.0 m/s
09:00 18.6° 999.2 hPa 2.2 m/s 0.0 mm 21.0° 999.3 hPa 1.5 m/s 11.3 mm 19.3° 999.3 hPa 2.9 m/s 0.0 mm 17.9° 999.2 hPa 0.6 m/s 0.0 mm 21.0° 999.9 hPa 3.9 m/s
12:00 19.4° 998.5 hPa 2.7 m/s 0.0 mm 20.9° 998.4 hPa 1.2 m/s 11.3 mm 19.4° 998.5 hPa 2.9 m/s 0.0 mm 17.0° 998.2 hPa 2.3 m/s 0.0 mm 20.2° 999.7 hPa 4.1 m/s
15:00 19.7° 998.0 hPa 2.4 m/s 0.0 mm 20.9° 997.5 hPa 1.4 m/s 11.6 mm 18.7° 998.0 hPa 2.3 m/s 0.2 mm 19.6° 999.4 hPa 4.3 m/s
18:00 16.8° 997.5 hPa 2.0 m/s 1.5 mm 19.0° 996.4 hPa 2.7 m/s 11.8 mm 16.3° 997.3 hPa 0.8 m/s 0.4 mm 15.9° 999.1 hPa 2.7 m/s
21:00 14.1° 997.4 hPa 2.3 m/s 1.5 mm 17.0° 996.3 hPa 2.9 m/s 11.8 mm 13.8° 996.9 hPa 0.6 m/s 0.0 mm 12.2° 999.2 hPa 2.1 m/s
 02:14     18:54    Daglengte: 16:40 Dinsdag 03 Aug
00:00 13.9° 997.9 hPa 2.5 m/s 0.0 mm 14.5° 995.9 hPa 2.1 m/s 11.9 mm 13.9° 997.5 hPa 2.4 m/s 0.1 mm 12.7° 1000.8 hPa 4.5 m/s
03:00 12.5° 999.0 hPa 4.2 m/s 0.0 mm 12.9° 995.6 hPa 3.0 m/s 11.9 mm 12.5° 998.8 hPa 4.3 m/s 0.0 mm 11.9° 1002.8 hPa 4.3 m/s
06:00 12.7° 1000.7 hPa 4.9 m/s 0.0 mm 15.0° 996.0 hPa 5.1 m/s 11.9 mm 12.4° 1000.8 hPa 5.0 m/s 0.0 mm 15.1° 1004.6 hPa 3.2 m/s
09:00 14.7° 1003.1 hPa 5.1 m/s 0.0 mm 14.6° 997.3 hPa 5.7 m/s 12.1 mm 15.2° 1003.5 hPa 5.2 m/s 0.0 mm 19.7° 1005.3 hPa 3.9 m/s
12:00 17.3° 1004.5 hPa 4.9 m/s 0.0 mm 13.7° 999.6 hPa 7.2 m/s 12.4 mm 17.8° 1004.7 hPa 4.8 m/s 0.0 mm 18.8° 1006.8 hPa 3.8 m/s
15:00 17.0° 1005.6 hPa 4.7 m/s 0.0 mm 15.2° 1002.3 hPa 5.5 m/s 13.5 mm 17.5° 1006.4 hPa 4.5 m/s 0.0 mm 18.4° 1008.1 hPa 4.6 m/s
18:00 14.2° 1007.6 hPa 2.9 m/s 0.0 mm 13.1° 1004.5 hPa 2.9 m/s 13.6 mm 14.5° 1008.4 hPa 2.9 m/s 0.0 mm 14.1° 1009.7 hPa 3.1 m/s
21:00 11.7° 1006.0 hPa 4.3 m/s 13.6 mm 11.7° 1006.0 hPa 4.3 m/s 13.6 mm 10.4° 1011.3 hPa 1.8 m/s
 02:16     18:51    Daglengte: 16:35 Woensdag 04 Aug
00:00 10.0° 1007.7 hPa 3.3 m/s 13.7 mm 10.0° 1007.7 hPa 3.3 m/s 13.6 mm 9.4° 1012.1 hPa 0.8 m/s
03:00 9.3° 1012.7 hPa 0.5 m/s 8.9 mm 9.3° 1012.7 hPa 0.5 m/s 8.9 mm
06:00 15.6° 1013.2 hPa 0.6 m/s 8.9 mm 15.6° 1013.2 hPa 0.6 m/s 8.9 mm
09:00 20.3° 1013.0 hPa 0.8 m/s 8.9 mm 20.3° 1013.0 hPa 0.8 m/s 8.9 mm
12:00 21.9° 1013.0 hPa 0.9 m/s 8.9 mm 21.9° 1013.0 hPa 0.9 m/s 8.9 mm
15:00 20.9° 1012.8 hPa 1.0 m/s 9.0 mm 20.9° 1012.8 hPa 1.0 m/s 9.0 mm
18:00 15.5° 1013.8 hPa 0.7 m/s 9.2 mm 15.5° 1013.8 hPa 0.7 m/s 9.2 mm
21:00 11.8° 1015.3 hPa 1.9 m/s 9.2 mm 11.8° 1015.3 hPa 1.9 m/s 9.2 mm
 02:19     18:49    Daglengte: 16:30 Donderdag 05 Aug
00:00 10.1° 1015.6 hPa 2.1 m/s 9.2 mm 10.1° 1015.6 hPa 2.1 m/s 9.2 mm
03:00 9.3° 1016.2 hPa 1.9 m/s 9.2 mm 9.3° 1016.2 hPa 1.9 m/s 9.2 mm
06:00 15.8° 1016.5 hPa 1.9 m/s 9.2 mm 15.8° 1016.5 hPa 1.9 m/s 9.2 mm
09:00 20.5° 1016.2 hPa 2.3 m/s 9.2 mm 20.5° 1016.2 hPa 2.3 m/s 9.2 mm
12:00 22.7° 1015.2 hPa 1.9 m/s 9.2 mm 22.7° 1015.2 hPa 1.9 m/s 9.2 mm
15:00 22.4° 1014.6 hPa 0.6 m/s 9.2 mm 22.4° 1014.6 hPa 0.6 m/s 9.2 mm
18:00 16.2° 1014.8 hPa 1.1 m/s 9.2 mm 16.2° 1014.8 hPa 1.1 m/s 9.2 mm
21:00 13.2° 1014.7 hPa 1.3 m/s 9.2 mm 13.2° 1014.7 hPa 1.3 m/s 9.2 mm
 02:21     18:46    Daglengte: 16:25 Vrijdag 06 Aug
00:00 12.1° 1014.3 hPa 2.3 m/s 9.2 mm 12.1° 1014.3 hPa 2.3 m/s 9.2 mm
03:00 11.7° 1013.6 hPa 2.6 m/s 9.2 mm 11.7° 1013.6 hPa 2.6 m/s 9.2 mm
06:00 18.5° 1011.9 hPa 4.3 m/s 9.2 mm 18.5° 1011.9 hPa 4.3 m/s 9.2 mm
09:00 22.6° 1011.0 hPa 5.3 m/s 9.2 mm 22.6° 1011.0 hPa 5.3 m/s 9.2 mm
12:00 23.9° 1009.0 hPa 5.9 m/s 9.2 mm 23.9° 1009.0 hPa 5.9 m/s 9.2 mm
15:00 21.1° 1008.2 hPa 4.2 m/s 9.2 mm 21.1° 1008.2 hPa 4.2 m/s 9.2 mm
18:00 17.9° 1007.7 hPa 2.9 m/s 9.3 mm 17.9° 1007.7 hPa 2.9 m/s 9.3 mm
21:00 16.4° 1007.2 hPa 4.1 m/s 9.3 mm 16.4° 1007.2 hPa 4.1 m/s 9.3 mm
 02:24     18:43    Daglengte: 16:19 Zaterdag 07 Aug
00:00 15.5° 1006.3 hPa 4.0 m/s 10.3 mm 15.5° 1006.3 hPa 4.0 m/s 10.3 mm
03:00 15.1° 1006.1 hPa 3.8 m/s 11.3 mm 15.1° 1006.1 hPa 3.8 m/s 11.3 mm
06:00 15.2° 1006.1 hPa 3.6 m/s 11.9 mm 15.2° 1006.1 hPa 3.6 m/s 11.9 mm
09:00 18.4° 1006.6 hPa 3.5 m/s 12.0 mm 18.4° 1006.6 hPa 3.5 m/s 12.0 mm
12:00 18.7° 1007.5 hPa 3.5 m/s 12.2 mm 18.7° 1007.5 hPa 3.5 m/s 12.2 mm
15:00 18.9° 1008.2 hPa 2.6 m/s 12.2 mm 18.9° 1008.2 hPa 2.6 m/s 12.2 mm
18:00 16.9° 1008.8 hPa 1.9 m/s 12.2 mm 16.9° 1008.8 hPa 1.9 m/s 12.2 mm
21:00 15.0° 1009.5 hPa 1.9 m/s 12.2 mm 15.0° 1009.5 hPa 1.9 m/s 12.2 mm
 02:26     18:41    Daglengte: 16:15 Zondag 08 Aug
00:00 14.4° 1009.9 hPa 2.1 m/s 12.3 mm 14.4° 1009.9 hPa 2.1 m/s 12.3 mm
06:00 18.5° 1010.4 hPa 2.2 m/s 12.8 mm 18.5° 1010.4 hPa 2.2 m/s 12.8 mm
12:00 19.8° 1011.3 hPa 3.1 m/s 13.9 mm 19.8° 1011.3 hPa 3.1 m/s 13.9 mm
18:00 18.2° 1012.4 hPa 2.8 m/s 14.2 mm 18.2° 1012.4 hPa 2.8 m/s 14.2 mm
 02:29     18:38    Daglengte: 16:09 Maandag 09 Aug
00:00 15.6° 1014.2 hPa 2.1 m/s 14.2 mm 15.6° 1014.2 hPa 2.1 m/s 14.2 mm
06:00 20.3° 1015.5 hPa 3.8 m/s 14.2 mm 20.3° 1015.5 hPa 3.8 m/s 14.2 mm
12:00 24.7° 1016.2 hPa 5.0 m/s 14.2 mm 24.7° 1016.2 hPa 5.0 m/s 14.2 mm
18:00 18.7° 1017.4 hPa 1.8 m/s 15.0 mm 18.7° 1017.4 hPa 1.8 m/s 15.0 mm
 02:31     18:35    Daglengte: 16:04 Dinsdag 10 Aug
00:00 16.0° 1016.3 hPa 2.1 m/s 15.0 mm 16.0° 1016.3 hPa 2.1 m/s 15.0 mm
06:00 18.6° 1015.4 hPa 2.9 m/s 15.0 mm 18.6° 1015.4 hPa 2.9 m/s 15.0 mm
12:00 26.1° 1014.9 hPa 3.4 m/s 15.1 mm 26.1° 1014.9 hPa 3.4 m/s 15.1 mm
18:00 17.5° 1013.2 hPa 0.4 m/s 0.7 mm
 02:33     18:32    Daglengte: 15:59 Woensdag 11 Aug
00:00 14.8° 1013.8 hPa 0.3 m/s 0.3 mm
06:00 17.3° 1013.8 hPa 0.5 m/s 0.7 mm
12:00 21.4° 1013.7 hPa 0.9 m/s 0.8 mm
18:00 17.5° 1013.7 hPa 0.9 m/s 1.1 mm
 02:36     18:29    Daglengte: 15:53 Donderdag 12 Aug
00:00 14.6° 1013.7 hPa 0.2 m/s 0.3 mm
06:00 17.4° 1013.6 hPa 0.3 m/s 0.5 mm
12:00 21.3° 1013.8 hPa 0.8 m/s 0.3 mm
18:00 17.3° 1014.1 hPa 0.4 m/s 0.8 mm
 02:38     18:27    Daglengte: 15:49 Vrijdag 13 Aug
00:00 14.3° 1014.5 hPa 0.3 m/s 0.3 mm
06:00 17.1° 1014.9 hPa 0.3 m/s 0.2 mm
12:00 21.0° 1015.0 hPa 1.0 m/s 1.0 mm
18:00 17.2° 1014.8 hPa 0.6 m/s 0.8 mm
 02:41     18:24    Daglengte: 15:43 Zaterdag 14 Aug
00:00 14.2° 1014.8 hPa 0.4 m/s 0.1 mm
06:00 16.7° 1014.3 hPa 0.6 m/s 0.5 mm
12:00 20.8° 1013.7 hPa 1.1 m/s 0.7 mm
18:00 16.8° 1013.1 hPa 0.8 m/s 0.6 mm
 02:43     18:21    Daglengte: 15:38 Zondag 15 Aug
00:00 14.0° 1012.7 hPa 0.5 m/s 0.1 mm
06:00 16.0° 1012.1 hPa 0.5 m/s 0.1 mm
12:00 20.4° 1011.7 hPa 0.8 m/s 0.3 mm
18:00 16.4° 1011.2 hPa 0.5 m/s 0.5 mm
FMI Hirlam - 7.5 km EWN WRFDA - 12 km DWD ICON - 7 km GFS - 25 km Basiskaart






























































Updatetijd (Europe/Amsterdam) Resolutie Lengte Stap
FMI Hirlam 19:00, 01:00, 07:00, 13:00 7.5 km 49h 1h
EWN WRFDA 22:15, 04:15, 10:15, 16:15 12 km 73h 1h
DWD ICON 23:45, 05:45, 11:45, 17:45 7 km 75h 1h
GFS 20:15, 02:15, 08:15, 14:15 25 km 237h 3h
30+ mm
25-30 mm
20-25 mm
15-20 mm
10-15 mm
6-10 mm
4-6 mm
2-4 mm
1-2 mm
0.5-1 mm
0.2-0.5 mm
0.1-0.2 mm
30+ mm
25-30 mm
20-25 mm
15-20 mm
10-15 mm
6-10 mm
4-6 mm
2-4 mm
1-2 mm
0.5-1 mm
0.2-0.5 mm
0.1-0.2 mm
Sneeuwval
Natte sneeuw
Hagel
Vorst
30+ mm
25-30 mm
20-25 mm
15-20 mm
10-15 mm
6-10 mm
4-6 mm
2-4 mm
1-2 mm
0.5-1 mm
0.2-0.5 mm
0.1-0.2 mm
Sneeuwval
Natte sneeuw
Hagel
Vorst
Onweer
50 mm
40 mm
30 mm
26 mm
22 mm
18 mm
14 mm
10 mm
9 mm
8 mm
7 mm
6 mm
5 mm
4.5 mm
4 mm
3.5 mm
3 mm
2.5 mm
2 mm
1.5 mm
1 mm
0.8 mm
0.6 mm
0.4 mm
0.2 mm
0.05 mm
35°
30°
25°
20°
15°
10°
-5°
-10°
-15°
-20°
-25°
-30°
-35°
33> m/s
29 m/s
25 m/s
21 m/s
17 m/s
14 m/s
11 m/s
8 m/s
5 m/s
3 m/s
0 m/s
2600 J/kg
2400 J/kg
2200 J/kg
2000 J/kg
1800 J/kg
1600 J/kg
1400 J/kg
1200 J/kg
1000 J/kg
800 J/kg
600 J/kg
400 J/kg
200 J/kg
70 dBZ
65 dBZ
60 dBZ
55 dBZ
50 dBZ
45 dBZ
40 dBZ
35 dBZ
30 dBZ
25 dBZ
20 dBZ
15 dBZ
10 dBZ
5 dBZ
-1 K
-2 K
-3 K
-4 K
-5 K
-6 K
-7 K
-8 K
-9 K
950 m²/s²
900 m²/s²
850 m²/s²
800 m²/s²
750 m²/s²
700 m²/s²
650 m²/s²
600 m²/s²
550 m²/s²
500 m²/s²
450 m²/s²
400 m²/s²
350 m²/s²
300 m²/s²
250 m²/s²
200 m²/s²
150 m²/s²
100 m²/s²
46 m/s
44 m/s
42 m/s
40 m/s
38 m/s
36 m/s
34 m/s
32 m/s
30 m/s
28 m/s
26 m/s
24 m/s
22 m/s
20 m/s
16 m/s
12 m/s
8 m/s
4 m/s
30 m/s
28 m/s
26 m/s
24 m/s
22 m/s
20 m/s
18 m/s
16 m/s
14 m/s
12 m/s
10 m/s
8 m/s
6 m/s
4 m/s
2 m/s
3.0
2.8
2.6
2.4
2.2
2.0
1.8
1.6
1.4
1.2
1.0
0.8
0.6
0.4
0.2
15
14
13
12
11
10
9
8
7
6
5
4
3
2
1
90%
80%
70%
60%
50%
40%
30%
20%
10%
42
40
38
36
34
32
30
28
26
24
22
20
18
16
14
12
90+ cm
80-90 cm
70-80 cm
60-70 cm
50-60 cm
40-50 cm
30-40 cm
20-30 cm
10-20 cm
1-10 cm
Sneeuwval
Natte sneeuw
Regen
>120 mm
115 mm
110 mm
105 mm
100 mm
95 mm
90 mm
85 mm
80 mm
75 mm
70 mm
65 mm
60 mm
55 mm
50 mm
45 mm
45 mm
40 mm
35 mm
30 mm
25 mm
20 mm
15 mm
10 mm
5 mm
0.1 mm